Location: Mesa Vista Observatory
(35.5777°N, 105.6987°W)
Time: 12:04:39
(UTC-06:00)

Hubble Space Telescope - Pass Details

Date: 24 June 2019
Orbit: 536 x 540 km, 28.5° (Epoch: 20 July)

Event Time Altitude Azimuth Distance (km) Brightness Sun altitude
Rises 21:45:36 0° 226° (SW) 2,667 4.4 -14.4°
Reaches altitude 10° 21:48:25 10° 206° (SSW) 1,777 3.2 -14.9°
Enters shadow 21:50:11 16° 182° (S) 1,424 2.5 -15.1°
